Kayseri, Turkey

1:38 PM +03 on January 16, 2018 (GMT +0300)
Erkilet Air Base

Weather History for LTAU - November, 2012

Change the Weather History Date:

Saturday, November 24, 2012

  Actual Average Record
Temperature  
Mean Temperature 42 °F -  
Max Temperature 46 °F 43 °F 68 °F (1998)
Min Temperature 39 °F 23 °F 9 °F (2016)
Degree Days  
Heating Degree Days 22    
Moisture  
Dew Point 41 °F    
Average Humidity 90    
Maximum Humidity 100    
Minimum Humidity 74    
Precipitation  
Precipitation 0.03 in - - ()
Sea Level Pressure  
Sea Level Pressure 30.10 in    
Wind  
Wind Speed 3 mph ()    
Max Wind Speed 6 mph    
Max Gust Speed -    
Visibility 3.6 miles    
Events Fog , Rain    
Averages and records for this station are not official NWS values.
T = Trace of Precipitation, MM = Missing Value Source: Averaged Metar Reports

Daily Weather History Graph

Daily Weather History Graph

Search for Another Location

Airport or City:

Trip Planner

Search our weather history database for the weather conditions in past years. The results will help you decide how hot, cold, wet, or windy it might be!

Date:

Astronomy

Nov. 24, 2012 Rise Set
Actual Time 6:30 AM EET 4:19 PM EET
Civil Twilight 6:01 AM EET 4:48 PM EET
Nautical Twilight 5:28 AM EET 5:20 PM EET
Astronomical Twilight 4:57 AM EET 5:52 PM EET
Moon 1:51 PM EET (11/24) 2:29 AM EET (11/24)
Length of Visible Light 10h 46m
Length of Day
9h 48m
Waxing Gibbous, 85% of the Moon is Illuminated
Nov 24
Waxing Gibbous
Nov 28
Full
Dec 6
Last Quarter
Dec 13
New
Dec 20
First Quarter

Hourly Weather History & Observations

Time (EET) Temp. Windchill Dew Point Humidity Pressure Visibility Wind Dir Wind Speed Gust Speed Precip Events Conditions
12:20 AM 42.8 °F 40.1 °F 41.0 °F 93% 30.12 in - WSW 4.6 mph - N/A Rain Light Rain
12:50 AM 42.8 °F 40.1 °F 41.0 °F 93% 30.12 in - West 4.6 mph - N/A Rain Light Rain
1:20 AM 42.8 °F 40.1 °F 41.0 °F 93% 30.12 in - West 4.6 mph - N/A Rain Light Rain
1:50 AM 42.8 °F - 41.0 °F 93% 30.12 in - WSW 2.3 mph - N/A Rain Light Rain
2:00 AM 42 °F - 40 °F 91%  in 3 mi WSW 2.3 mph - - Rain Light Rain
2:20 AM 42.8 °F - 41.0 °F 93% 30.12 in - Calm Calm - N/A   Overcast
2:50 AM 42.8 °F - 41.0 °F 93% 30.12 in - West 2.3 mph - N/A   Overcast
3:20 AM 42.8 °F 39.3 °F 41.0 °F 93% 30.09 in - West 5.8 mph - N/A   Overcast
3:50 AM 42.8 °F 41.1 °F 41.0 °F 93% 30.12 in - West 3.5 mph - N/A   Overcast
4:20 AM 42.8 °F 40.1 °F 41.0 °F 93% 30.09 in - West 4.6 mph - N/A   Overcast
4:50 AM 42.8 °F 40.1 °F 41.0 °F 93% 30.09 in - West 4.6 mph - N/A   Mostly Cloudy
5:20 AM 41.0 °F 39.0 °F 41.0 °F 100% 30.09 in - WSW 3.5 mph - N/A Rain Light Rain
5:50 AM 41.0 °F 39.0 °F 41.0 °F 100% 30.12 in - WSW 3.5 mph - N/A Rain Light Rain
6:20 AM 41.0 °F 38.0 °F 41.0 °F 100% 30.12 in 1.4 mi WSW 4.6 mph - N/A Rain Light Rain
6:50 AM 42.8 °F - 41.0 °F 93% 30.12 in 1.2 mi West 2.3 mph - N/A Rain Light Rain
7:20 AM 42.8 °F 41.1 °F 41.0 °F 93% 30.12 in 0.9 mi WSW 3.5 mph - N/A Fog , Rain Light Rain
7:50 AM 42.8 °F 39.3 °F 41.0 °F 93% 30.12 in 2.5 mi WSW 5.8 mph - N/A Rain Light Rain
8:00 AM 42 °F - 41 °F 94%  in 2 mi WSW 4.6 mph - - Rain Light Rain
8:20 AM 42.8 °F 39.3 °F 41.0 °F 93% 30.12 in - WSW 5.8 mph - N/A Rain Light Rain
8:50 AM 42.8 °F 40.1 °F 41.0 °F 93% 30.12 in 2.8 mi WSW 4.6 mph - N/A Rain Light Rain
9:20 AM 42.8 °F 40.1 °F 41.0 °F 93% 30.12 in 3.1 mi WSW 4.6 mph - N/A Rain Light Rain
9:50 AM 42.8 °F - 41.0 °F 93% 30.12 in 3.7 mi SW 1.2 mph - N/A Rain Light Rain
10:20 AM 42.8 °F 41.1 °F 41.0 °F 93% 30.12 in 3.7 mi SW 3.5 mph - N/A   Overcast
10:50 AM 44.6 °F - 41.0 °F 87% 30.12 in 3.7 mi SW 2.3 mph - N/A   Overcast
11:20 AM 44.6 °F - 41.0 °F 87% 30.09 in 3.7 mi Variable 1.2 mph - N/A   Mostly Cloudy
11:50 AM 46.4 °F - 41.0 °F 81% 30.09 in 4.3 mi Variable 2.3 mph - N/A   Mostly Cloudy
12:20 PM 46.4 °F - 41.0 °F 81% 30.09 in 5.0 mi Variable 2.3 mph - N/A   Mostly Cloudy
12:50 PM 46.4 °F - 41.0 °F 81% 30.09 in 5.0 mi Variable 2.3 mph - N/A   Mostly Cloudy
1:20 PM 46.4 °F - 41.0 °F 81% 30.06 in 5.0 mi Variable 1.2 mph - N/A   Overcast
1:50 PM 46.4 °F 45.2 °F 41.0 °F 81% 30.06 in 3.7 mi SE 3.5 mph - N/A   Overcast
2:00 PM 47 °F - 41 °F 74%  in 4 mi SE 3.5 mph - -   Mist
2:20 PM 46.4 °F 44.3 °F 41.0 °F 81% 30.06 in 3.7 mi ESE 4.6 mph - N/A   Overcast
2:50 PM 46.4 °F 45.2 °F 41.0 °F 81% 30.06 in 4.3 mi ESE 3.5 mph - N/A   Overcast
3:20 PM 46.4 °F - 41.0 °F 81% 30.06 in 3.7 mi Calm Calm - N/A   Overcast
3:50 PM 46.4 °F - 41.0 °F 81% 30.06 in 3.7 mi Calm Calm - N/A   Overcast
4:20 PM 44.6 °F - 41.0 °F 87% 30.09 in 3.7 mi South 1.2 mph - N/A   Overcast
4:50 PM 44.6 °F 43.1 °F 41.0 °F 87% 30.09 in 3.7 mi South 3.5 mph - N/A   Overcast
5:20 PM 44.6 °F 42.2 °F 41.0 °F 87% 30.09 in 3.7 mi SW 4.6 mph - N/A   Overcast
5:50 PM 44.6 °F 41.4 °F 41.0 °F 87% 30.09 in 3.7 mi WSW 5.8 mph - N/A Rain Light Rain
6:20 PM 44.6 °F - 41.0 °F 87% 30.09 in 4.3 mi SW 2.3 mph - N/A Rain Light Rain
6:50 PM 42.8 °F - 41.0 °F 93% 30.09 in 3.7 mi Calm Calm - N/A   Mostly Cloudy
7:20 PM 41.0 °F - 39.2 °F 93% 30.09 in 3.7 mi SSW 2.3 mph - N/A   Mostly Cloudy
7:50 PM 39.2 °F - 37.4 °F 93% 30.09 in 3.7 mi Variable 2.3 mph - N/A   Mostly Cloudy
8:00 PM 40 °F - 37 °F 86%  in 4 mi SSW 2.3 mph - -   Mist
8:20 PM 41.0 °F - 37.4 °F 87% 30.12 in 3.7 mi WSW 1.2 mph - N/A   Mostly Cloudy
8:50 PM 41.0 °F - 39.2 °F 93% 30.12 in 3.7 mi West 2.3 mph - N/A   Mostly Cloudy
9:20 PM 41.0 °F - 39.2 °F 93% 30.12 in 3.7 mi West 1.2 mph - N/A   Mostly Cloudy
9:50 PM 41.0 °F 39.0 °F 39.2 °F 93% 30.12 in 3.7 mi WSW 3.5 mph - N/A   Mostly Cloudy
10:20 PM 41.0 °F 37.1 °F 39.2 °F 93% 30.09 in 3.7 mi WSW 5.8 mph - N/A   Mostly Cloudy
10:50 PM 41.0 °F - 41.0 °F 100% 30.09 in 3.7 mi SW 2.3 mph - N/A   Mostly Cloudy
11:20 PM 42.8 °F 41.1 °F 41.0 °F 93% 30.09 in 3.7 mi SW 3.5 mph - N/A   Mostly Cloudy
11:50 PM 41.0 °F 38.0 °F 39.2 °F 93% 30.12 in 4.3 mi WSW 4.6 mph - N/A   Mostly Cloudy